SCP
0 0 0 0 0 0 0 0 0 0 0 0 0 0 0 0 0 0 0 0 0 0 0 0 0 0 0 0 0 0 0 0 0 0 0 0 0 0 0 0 0 0 0 0
0 0 0 0 0 0 0 0 0 0 0 0 0 0 0 0 0 0 0 0 0 0 0 0 0 0 0 0 0 0 0 0 0 0 0 0 0 0 0 0 0 0 0 0
0 0 0 0 0 0 0 0 0 0 0 0 0 0 0 0 0 0 0 0 0 0 0 0 0 0 0 0 0 0 0 0 0 0 0 0 0 0 0 0 0 0 0 0
0 0 0 0 0 0 0 0 0 0 0 0 0 0 0 0 0 0 0 0 0 0 0 0 0 0 0 0 0 0 0 0 0 0 0 0 0 0 0 0 0 0 0 0
0 0 0 0 0 0 0 0 0 0 0 0 0 0 0 0 0 0 0 0 0 0 0 0 0 0 0 0 0 0 0 0 0 0 0 0 0 0 0 0 0 0 0 0
0 0 0 0 0 0 0 0 0 0 0 0 0 0 0 0 0 0 0 -0 0 0 0 0 0 0 0 0 0 0 0 0 0 0 0 0 0 0 0 0 0 0 0 0
0 0 0 0 0 0 0 0 0 0 0 0 0 0 0 0 0 0 -0 0 0 0 0 0 0 0 0 0 0 0 0 0 0 0 0 0 0 0 0 0 0 0 0 0
0 0 0 0 0 0 0 0 0 0 0 0 0 0 0 0 0 0 0 0 0 0 0 0 0 0 0 0 0 0 0 0 0 0 0 0 0 0 0 0 0 0 0 0
0 0 0 0 0 0 0 0 0 0 0 0 0 0 0 0 0 -0 0 0 0 0 0 0 0 0 0 0 0 0 0 0 0 0 0 0 0 0 0 0 0 0 0 0
0 0 0 0 0 0 0 0 0 0 0 0 0 0 0 0 0 0 0 0 0 0 0 0 0 0 0 0 0 0 0 0 0 0 0 0 0 0 0 0 0 0 0 0
0 0 0 0 0 0 0 0 0 0 0 0 0 0 0 0 0 0 0 0 0 0 0 0 0 0 0 0 0 0 0 0 0 0 0 0 0 0 0 0 0 0 0 0
0 0 0 0 0 0 0 0 0 0 0 0 0 0 0 0 0 0 0 0 0 0 0 -0 0 0 0 0 0 0 0 0 0 0 0 0 0 0 0 0 0 0 0 0
0 0 0 0 0 0 0 0 0 0 0 0 0 0 0 0 0 0 0 0 0 0 0 0 0 0 0 0 0 0 0 0 0 0 0 0 0 0 0 0 0 0 0 0
0 0 0 0 0 0 0 0 0 0 0 0 0 0 0 0 0 0 0 0 0 0 0 0 0 0 0 0 0 0 0 0 0 0 0 0 0 0 0 0 0 0 0 0
0 0 0 0 0 0 0 0 0 0 0 0 0 0 0 0 0 0 0 0 0 0 0 0 0 0 0 0 0 0 0 0 0 0 0 0 0 0 0 0 0 0 0 0
0 0 0 0 0 0 0 0 0 0 0 0 -0 0 0 0 0 0 0 0 0 0 0 0 0 0 0 0 0 0 0 0 0 0 0 0 0 0 0 0 0 0 0 0
0 0 0 0 0 0 0 0 0 0 0 0 0 -0 0 0 0 0 0 0 0 0 0 0 0 0 0 0 0 0 0 0 0 0 0 0 0 0 0 0 0 0 0 0
0 0 0 0 0 0 0 0 0 0 0 0 0 0 0 0 0 0 0 0 0 0 0 0 0 0 0 0 0 0 0 0 0 0 0 0 0 0 0 0 0 0 0 0
0 0 0 0 0 0 0 0 0 0 0 0 0 0 0 0 0 0 0 0 0 0 0 0 0 0 0 0 0 0 0 0 0 0 0 0 0 0 0 0 0 0 0 0
0 0 0 0 0 0 0 0 0 0 0 0 0 0 0 0 0 0 0 0 0 0 0 0 0 0 0 0 0 0 0 0 0 0 0 0 0 0 0 0 0 0 0 0
0 0 0 0 0 0 0 0 0 0 0 0 0 0 0 0 0 0 0 0 0 0 0 0 0 0 0 0 0 0 0 0 0 0 0 0 0 0 0 0 0 0 0 0
0 0 0 0 0 0 0 0 0 0 0 0 0 0 0 0 0 0 0 0 -0 -0 0 0 0 0 0 0 0 0 0 0 0 0 0 0 0 0 0 0 0 0 0 0
0 0 0 0 0 0 0 0 0 0 0 0 0 0 0 0 0 -0 -0 0 0 0 0 0 -0 0 0 -0 -0 0 0 0 0 0 0 0 0 0 0 0 0 0 0 0
0 0 0 0 0 0 0 0 0 0 0 0 0 0 0 0 -0 -0 0 0 0 0 0 -0 -0 -0 0 0 0 0 0 0 0 0 0 0 0 0 0 0 0 0 0 0
0 0 0 0 0 0 0 0 0 0 0 0 0 0 0 0 0 0 0 0 0 0 0 0 -0 -0 -0 0 0 0 0 0 0 0 0 0 0 0 0 0 0 0 0 0
0 0 0 0 0 0 0 0 0 0 0 0 0 0 0 0 0 0 0 0 0 0 0 0 0 0 -0 -0 0 0 0 0 0 0 0 0 0 0 0 0 0 0 0 0
Wind_Speed_500mb
33 20 31 35 38 36 33 34 32 26 13 21 34 42 41 54 60 60 60 60 62 61 58 50 52 51 54 56 56 65 67 67 74 76 80 84 87 81 76 74 70 69 68 66
18 42 34 33 34 41 41 38 38 28 14 19 37 51 46 51 62 66 64 67 65 63 61 54 53 55 58 60 69 69 68 72 77 82 80 83 85 83 80 82 80 80 77 75
34 8 47 33 36 37 37 39 31 30 24 30 34 56 51 53 75 74 73 77 77 75 73 74 64 62 63 67 74 78 79 78 82 82 80 82 80 83 86 90 89 90 85 85
32 43 29 35 42 35 37 32 31 27 18 18 7 22 40 40 46 46 52 54 60 60 63 64 58 58 62 70 72 83 90 86 87 84 86 90 93 94 93 91 89 89 89 92
25 33 33 37 35 31 24 20 21 25 28 29 36 19 11 15 28 28 30 40 48 50 49 51 52 53 58 58 70 82 91 97 94 92 93 94 98 99 96 92 92 91 89 93
43 11 29 43 27 27 11 19 21 19 5 14 31 26 22 23 14 11 17 38 36 38 35 31 37 40 42 47 56 73 81 88 95 101 98 100 102 100 98 99 100 96 93 93
37 35 16 17 36 36 30 20 6 9 9 15 20 25 39 14 19 33 36 32 33 30 30 32 38 35 33 40 50 57 75 84 83 94 103 104 104 102 102 100 103 104 101 102
32 24 52 28 38 19 39 28 10 16 11 12 22 24 24 10 21 26 27 25 28 20 14 13 19 30 34 36 42 49 52 73 76 81 99 105 102 99 102 102 105 106 107 104
35 33 7 36 30 37 27 34 36 24 3 7 14 36 35 31 34 46 35 23 2 6 13 16 28 46 55 57 38 39 49 57 64 78 87 99 103 105 104 103 103 104 103 104
18 23 22 40 32 44 33 21 7 9 12 18 29 37 27 12 19 23 13 26 5 14 16 27 36 44 57 44 51 43 47 60 65 70 78 92 86 97 105 103 103 103 103 101
15 17 13 28 30 37 30 34 15 11 12 9 10 18 13 19 15 3 12 5 16 17 32 44 42 50 54 52 49 51 48 44 60 65 66 85 69 79 89 98 102 104 104 99
45 2 13 26 3 32 40 51 47 18 19 10 19 33 9 9 2 11 12 11 17 28 41 48 49 62 50 54 54 47 50 49 43 48 61 74 65 71 84 92 94 94 97 97
35 12 9 8 15 14 25 41 42 45 29 28 16 25 6 29 25 14 20 35 43 42 54 56 55 56 58 59 57 44 43 53 43 39 48 59 60 62 75 83 82 84 88 89
42 20 29 26 5 9 17 48 47 41 25 46 32 54 42 19 23 36 49 39 52 55 52 53 57 60 65 65 62 48 44 57 56 46 46 50 59 70 72 75 75 72 82 82
24 18 30 39 37 15 22 16 35 51 51 31 50 50 48 42 39 38 48 51 48 53 53 53 58 62 64 66 64 54 48 48 55 54 55 54 50 55 63 71 68 66 73 76
30 7 13 19 36 38 23 23 33 40 40 38 51 47 52 52 62 47 37 47 45 53 52 50 57 59 61 61 66 57 50 49 50 51 53 51 48 56 60 65 65 60 64 67
30 13 10 13 17 14 10 47 44 42 45 45 42 61 39 35 26 41 41 42 38 37 46 50 55 60 60 56 60 53 52 52 51 48 47 44 44 53 56 54 58 55 55 55
22 16 4 3 10 15 20 8 32 47 46 42 44 53 35 40 43 45 18 16 25 38 45 53 60 64 54 49 46 50 41 45 46 42 42 38 36 38 41 43 45 48 49 50
25 22 8 10 19 20 24 15 13 19 27 36 46 39 31 23 26 7 14 25 28 37 45 53 58 60 56 50 47 40 43 42 38 36 35 41 32 30 36 39 42 46 49 49
4 26 17 8 17 20 10 6 10 14 15 13 17 15 3 13 7 13 35 38 39 41 47 55 58 58 58 53 48 44 33 35 36 39 36 37 28 24 30 28 34 34 36 38
11 13 31 26 14 12 5 13 21 15 4 21 18 10 1 2 10 31 34 37 37 40 47 48 53 56 55 56 51 45 41 34 32 37 37 36 29 26 24 27 31 29 28 31
24 18 12 13 19 30 18 12 15 11 15 16 10 6 5 14 20 28 40 42 41 47 53 53 52 52 54 53 52 46 42 39 37 38 37 36 39 28 28 27 31 30 29 32
15 11 11 18 9 5 13 5 11 15 18 12 10 7 10 16 16 23 38 46 52 57 61 59 57 52 48 48 48 48 43 41 40 36 36 37 34 38 33 30 35 36 33 30
12 9 4 4 12 10 14 13 16 14 13 9 7 8 12 17 21 28 35 42 49 54 59 62 61 59 53 47 44 43 44 43 41 42 38 34 33 34 37 36 36 36 36 36
5 23 12 7 3 2 9 14 20 16 11 7 9 11 15 21 25 30 36 40 43 48 52 57 60 60 56 51 45 41 41 44 44 39 37 37 33 32 37 39 42 45 43 40
16 10 13 10 8 8 7 25 23 17 12 12 14 16 19 24 28 33 37 40 44 48 49 51 53 56 56 52 50 45 41 40 43 45 39 34 34 33 32 36 40 38 40 41
Wind_Direction_500mb
199 210 213 207 220 233 253 245 253 252 244 292 270 273 274 273 267 266 264 264 265 266 265 263 257 250 245 232 227 226 227 230 226 225 227 230 235 236 237 235 232 236 236 235
193 229 218 221 226 235 242 252 250 256 275 276 278 274 270 268 269 265 266 268 269 269 265 263 259 251 244 239 236 233 227 231 230 229 233 236 241 242 242 240 236 234 236 237
207 233 217 226 227 225 234 239 245 262 290 275 287 284 263 254 257 260 259 263 264 264 266 268 264 253 245 238 238 239 239 237 235 232 231 232 235 242 242 240 238 236 236 239
226 224 187 215 225 221 240 240 256 262 273 258 260 288 288 289 275 272 271 263 261 258 259 265 266 260 252 246 241 242 248 244 240 236 230 232 234 237 242 243 244 241 239 240
210 207 208 212 207 209 233 249 242 247 253 267 258 271 281 270 281 273 261 267 261 262 262 269 266 269 264 253 250 243 245 246 243 240 235 234 235 239 243 243 244 244 242 242
230 192 225 227 221 224 208 241 258 258 310 240 234 227 281 258 271 313 275 268 275 268 272 287 282 277 272 260 255 244 244 244 244 242 241 236 239 239 237 243 245 246 245 245
223 220 221 229 222 218 220 211 207 221 212 244 211 208 244 285 267 291 272 290 302 288 292 289 292 295 287 271 266 258 247 243 236 240 242 243 242 242 243 245 247 247 246 244
207 214 221 198 222 190 207 189 209 215 210 249 192 232 244 238 253 269 272 295 304 300 306 330 343 2 345 303 267 258 258 248 238 232 242 246 244 244 245 245 247 249 250 252
200 221 219 202 205 202 194 220 235 273 297 278 226 249 262 254 246 267 261 263 223 9 2 12 7 359 359 357 326 270 268 261 252 240 239 243 246 246 247 250 250 249 251 252
201 226 183 194 211 225 232 156 149 206 224 232 241 246 246 190 225 265 247 196 287 317 316 340 341 338 346 350 354 336 291 274 258 253 239 239 249 252 252 253 253 249 249 249
214 234 167 163 208 205 209 225 228 212 222 228 250 240 259 282 272 239 347 155 330 353 334 334 332 331 331 332 332 339 329 295 263 248 244 240 248 252 255 254 255 254 249 245
204 279 213 205 122 217 218 221 215 217 214 264 278 269 291 285 220 335 315 359 332 320 327 330 326 330 320 325 331 325 322 315 293 257 245 248 250 252 251 251 251 248 243 243
192 210 190 249 278 233 236 228 228 233 251 236 216 260 264 234 258 277 312 324 324 322 324 320 317 318 319 318 321 321 320 314 296 282 265 257 270 260 254 251 248 243 239 240
180 196 211 222 129 131 215 232 227 227 225 236 225 258 252 245 289 310 313 321 317 317 320 320 319 317 315 315 314 308 309 310 304 287 264 271 263 267 261 253 248 244 241 242
191 221 220 236 255 265 247 229 239 220 227 226 238 244 260 266 279 292 317 309 313 320 319 322 321 321 318 317 323 307 305 303 299 284 274 264 270 268 258 249 246 244 241 239
202 226 213 243 245 248 242 251 230 227 237 245 262 267 263 278 292 295 299 309 320 319 321 326 323 324 322 321 325 315 313 312 298 288 277 270 261 271 264 253 248 242 240 240
189 162 157 228 200 240 274 241 243 241 225 226 233 244 272 274 293 294 315 318 324 328 326 327 325 322 321 310 319 312 306 312 306 297 285 273 264 253 261 258 253 247 246 246
183 169 131 235 138 216 239 239 235 235 235 239 251 260 278 287 302 298 329 3 334 327 329 332 336 336 332 324 324 315 302 308 307 299 288 274 270 264 248 235 246 250 245 243
190 184 183 218 215 281 290 211 190 190 247 240 246 264 285 309 289 166 31 356 345 334 334 336 343 346 342 330 323 324 314 308 304 302 291 276 264 261 247 241 234 238 239 240
209 202 205 158 226 233 312 147 151 151 261 144 132 120 147 304 265 115 346 340 333 333 336 344 349 351 349 346 335 323 316 307 301 299 294 282 270 253 256 244 242 238 243 246
171 181 209 213 240 264 242 125 160 175 192 128 125 127 105 320 12 304 323 325 326 326 329 341 349 353 353 350 345 334 320 312 300 294 292 287 276 266 250 244 241 237 238 243
187 174 191 196 209 243 157 151 214 110 108 133 127 144 288 298 311 310 319 325 329 332 336 336 341 348 350 349 345 342 333 319 303 292 287 284 284 268 268 266 264 262 252 244
204 203 194 202 218 99 163 100 155 133 146 156 165 220 279 295 306 307 319 326 329 332 333 335 336 339 343 344 343 340 338 328 316 303 293 289 283 281 266 264 268 264 258 253
218 190 230 123 202 202 171 177 174 158 155 181 219 264 292 299 308 320 327 329 327 326 327 329 331 329 332 336 337 335 334 330 323 317 306 294 286 276 273 252 249 255 254 250
142 148 166 256 219 128 195 197 190 190 203 240 277 290 303 310 315 318 322 326 328 326 326 326 328 328 329 328 330 330 330 329 324 317 313 304 291 280 272 262 257 248 239 242
181 164 184 220 163 255 107 187 200 204 218 256 280 290 299 307 306 310 314 317 319 321 322 321 322 324 326 327 324 325 328 328 324 318 314 308 297 286 275 266 256 247 242 242
Wind_Speed_850mb
33 20 31 35 38 36 33 34 32 26 13 21 34 42 41 54 60 60 60 60 62 61 58 50 52 51 54 56 56 65 67 67 74 76 80 84 87 81 76 74 70 69 68 66
18 42 34 33 34 41 41 38 38 28 14 19 37 51 46 51 62 66 64 67 65 63 61 54 53 55 58 60 69 69 68 72 77 82 80 83 85 83 80 82 80 80 77 75
34 8 47 33 36 37 37 39 31 30 24 30 34 56 51 53 75 74 73 77 77 75 73 74 64 62 63 67 74 78 79 78 82 82 80 82 80 83 86 90 89 90 85 85
32 43 29 35 42 35 37 32 31 27 18 18 7 22 40 40 46 46 52 54 60 60 63 64 58 58 62 70 72 83 90 86 87 84 86 90 93 94 93 91 89 89 89 92
25 33 33 37 35 31 24 20 21 25 28 29 36 19 11 15 28 28 30 40 48 50 49 51 52 53 58 58 70 82 91 97 94 92 93 94 98 99 96 92 92 91 89 93
43 11 29 43 27 27 11 19 21 19 5 14 31 26 22 23 14 11 17 38 36 38 35 31 37 40 42 47 56 73 81 88 95 101 98 100 102 100 98 99 100 96 93 93
37 35 16 17 36 36 30 20 6 9 9 15 20 25 39 14 19 33 36 32 33 30 30 32 38 35 33 40 50 57 75 84 83 94 103 104 104 102 102 100 103 104 101 102
32 24 52 28 38 19 39 28 10 16 11 12 22 24 24 10 21 26 27 25 28 20 14 13 19 30 34 36 42 49 52 73 76 81 99 105 102 99 102 102 105 106 107 104
35 33 7 36 30 37 27 34 36 24 3 7 14 36 35 31 34 46 35 23 2 6 13 16 28 46 55 57 38 39 49 57 64 78 87 99 103 105 104 103 103 104 103 104
18 23 22 40 32 44 33 21 7 9 12 18 29 37 27 12 19 23 13 26 5 14 16 27 36 44 57 44 51 43 47 60 65 70 78 92 86 97 105 103 103 103 103 101
15 17 13 28 30 37 30 34 15 11 12 9 10 18 13 19 15 3 12 5 16 17 32 44 42 50 54 52 49 51 48 44 60 65 66 85 69 79 89 98 102 104 104 99
45 2 13 26 3 32 40 51 47 18 19 10 19 33 9 9 2 11 12 11 17 28 41 48 49 62 50 54 54 47 50 49 43 48 61 74 65 71 84 92 94 94 97 97
35 12 9 8 15 14 25 41 42 45 29 28 16 25 6 29 25 14 20 35 43 42 54 56 55 56 58 59 57 44 43 53 43 39 48 59 60 62 75 83 82 84 88 89
42 20 29 26 5 9 17 48 47 41 25 46 32 54 42 19 23 36 49 39 52 55 52 53 57 60 65 65 62 48 44 57 56 46 46 50 59 70 72 75 75 72 82 82
24 18 30 39 37 15 22 16 35 51 51 31 50 50 48 42 39 38 48 51 48 53 53 53 58 62 64 66 64 54 48 48 55 54 55 54 50 55 63 71 68 66 73 76
30 7 13 19 36 38 23 23 33 40 40 38 51 47 52 52 62 47 37 47 45 53 52 50 57 59 61 61 66 57 50 49 50 51 53 51 48 56 60 65 65 60 64 67
30 13 10 13 17 14 10 47 44 42 45 45 42 61 39 35 26 41 41 42 38 37 46 50 55 60 60 56 60 53 52 52 51 48 47 44 44 53 56 54 58 55 55 55
22 16 4 3 10 15 20 8 32 47 46 42 44 53 35 40 43 45 18 16 25 38 45 53 60 64 54 49 46 50 41 45 46 42 42 38 36 38 41 43 45 48 49 50
25 22 8 10 19 20 24 15 13 19 27 36 46 39 31 23 26 7 14 25 28 37 45 53 58 60 56 50 47 40 43 42 38 36 35 41 32 30 36 39 42 46 49 49
4 26 17 8 17 20 10 6 10 14 15 13 17 15 3 13 7 13 35 38 39 41 47 55 58 58 58 53 48 44 33 35 36 39 36 37 28 24 30 28 34 34 36 38
11 13 31 26 14 12 5 13 21 15 4 21 18 10 1 2 10 31 34 37 37 40 47 48 53 56 55 56 51 45 41 34 32 37 37 36 29 26 24 27 31 29 28 31
24 18 12 13 19 30 18 12 15 11 15 16 10 6 5 14 20 28 40 42 41 47 53 53 52 52 54 53 52 46 42 39 37 38 37 36 39 28 28 27 31 30 29 32
15 11 11 18 9 5 13 5 11 15 18 12 10 7 10 16 16 23 38 46 52 57 61 59 57 52 48 48 48 48 43 41 40 36 36 37 34 38 33 30 35 36 33 30
12 9 4 4 12 10 14 13 16 14 13 9 7 8 12 17 21 28 35 42 49 54 59 62 61 59 53 47 44 43 44 43 41 42 38 34 33 34 37 36 36 36 36 36
5 23 12 7 3 2 9 14 20 16 11 7 9 11 15 21 25 30 36 40 43 48 52 57 60 60 56 51 45 41 41 44 44 39 37 37 33 32 37 39 42 45 43 40
16 10 13 10 8 8 7 25 23 17 12 12 14 16 19 24 28 33 37 40 44 48 49 51 53 56 56 52 50 45 41 40 43 45 39 34 34 33 32 36 40 38 40 41
Wind_Direction_850mb
199 210 213 207 220 233 253 245 253 252 244 292 270 273 274 273 267 266 264 264 265 266 265 263 257 250 245 232 227 226 227 230 226 225 227 230 235 236 237 235 232 236 236 235
193 229 218 221 226 235 242 252 250 256 275 276 278 274 270 268 269 265 266 268 269 269 265 263 259 251 244 239 236 233 227 231 230 229 233 236 241 242 242 240 236 234 236 237
207 233 217 226 227 225 234 239 245 262 290 275 287 284 263 254 257 260 259 263 264 264 266 268 264 253 245 238 238 239 239 237 235 232 231 232 235 242 242 240 238 236 236 239
226 224 187 215 225 221 240 240 256 262 273 258 260 288 288 289 275 272 271 263 261 258 259 265 266 260 252 246 241 242 248 244 240 236 230 232 234 237 242 243 244 241 239 240
210 207 208 212 207 209 233 249 242 247 253 267 258 271 281 270 281 273 261 267 261 262 262 269 266 269 264 253 250 243 245 246 243 240 235 234 235 239 243 243 244 244 242 242
230 192 225 227 221 224 208 241 258 258 310 240 234 227 281 258 271 313 275 268 275 268 272 287 282 277 272 260 255 244 244 244 244 242 241 236 239 239 237 243 245 246 245 245
223 220 221 229 222 218 220 211 207 221 212 244 211 208 244 285 267 291 272 290 302 288 292 289 292 295 287 271 266 258 247 243 236 240 242 243 242 242 243 245 247 247 246 244
207 214 221 198 222 190 207 189 209 215 210 249 192 232 244 238 253 269 272 295 304 300 306 330 343 2 345 303 267 258 258 248 238 232 242 246 244 244 245 245 247 249 250 252
200 221 219 202 205 202 194 220 235 273 297 278 226 249 262 254 246 267 261 263 223 9 2 12 7 359 359 357 326 270 268 261 252 240 239 243 246 246 247 250 250 249 251 252
201 226 183 194 211 225 232 156 149 206 224 232 241 246 246 190 225 265 247 196 287 317 316 340 341 338 346 350 354 336 291 274 258 253 239 239 249 252 252 253 253 249 249 249
214 234 167 163 208 205 209 225 228 212 222 228 250 240 259 282 272 239 347 155 330 353 334 334 332 331 331 332 332 339 329 295 263 248 244 240 248 252 255 254 255 254 249 245
204 279 213 205 122 217 218 221 215 217 214 264 278 269 291 285 220 335 315 359 332 320 327 330 326 330 320 325 331 325 322 315 293 257 245 248 250 252 251 251 251 248 243 243
192 210 190 249 278 233 236 228 228 233 251 236 216 260 264 234 258 277 312 324 324 322 324 320 317 318 319 318 321 321 320 314 296 282 265 257 270 260 254 251 248 243 239 240
180 196 211 222 129 131 215 232 227 227 225 236 225 258 252 245 289 310 313 321 317 317 320 320 319 317 315 315 314 308 309 310 304 287 264 271 263 267 261 253 248 244 241 242
191 221 220 236 255 265 247 229 239 220 227 226 238 244 260 266 279 292 317 309 313 320 319 322 321 321 318 317 323 307 305 303 299 284 274 264 270 268 258 249 246 244 241 239
202 226 213 243 245 248 242 251 230 227 237 245 262 267 263 278 292 295 299 309 320 319 321 326 323 324 322 321 325 315 313 312 298 288 277 270 261 271 264 253 248 242 240 240
189 162 157 228 200 240 274 241 243 241 225 226 233 244 272 274 293 294 315 318 324 328 326 327 325 322 321 310 319 312 306 312 306 297 285 273 264 253 261 258 253 247 246 246
183 169 131 235 138 216 239 239 235 235 235 239 251 260 278 287 302 298 329 3 334 327 329 332 336 336 332 324 324 315 302 308 307 299 288 274 270 264 248 235 246 250 245 243
190 184 183 218 215 281 290 211 190 190 247 240 246 264 285 309 289 166 31 356 345 334 334 336 343 346 342 330 323 324 314 308 304 302 291 276 264 261 247 241 234 238 239 240
209 202 205 158 226 233 312 147 151 151 261 144 132 120 147 304 265 115 346 340 333 333 336 344 349 351 349 346 335 323 316 307 301 299 294 282 270 253 256 244 242 238 243 246
171 181 209 213 240 264 242 125 160 175 192 128 125 127 105 320 12 304 323 325 326 326 329 341 349 353 353 350 345 334 320 312 300 294 292 287 276 266 250 244 241 237 238 243
187 174 191 196 209 243 157 151 214 110 108 133 127 144 288 298 311 310 319 325 329 332 336 336 341 348 350 349 345 342 333 319 303 292 287 284 284 268 268 266 264 262 252 244
204 203 194 202 218 99 163 100 155 133 146 156 165 220 279 295 306 307 319 326 329 332 333 335 336 339 343 344 343 340 338 328 316 303 293 289 283 281 266 264 268 264 258 253
218 190 230 123 202 202 171 177 174 158 155 181 219 264 292 299 308 320 327 329 327 326 327 329 331 329 332 336 337 335 334 330 323 317 306 294 286 276 273 252 249 255 254 250
142 148 166 256 219 128 195 197 190 190 203 240 277 290 303 310 315 318 322 326 328 326 326 326 328 328 329 328 330 330 330 329 324 317 313 304 291 280 272 262 257 248 239 242
181 164 184 220 163 255 107 187 200 204 218 256 280 290 299 307 306 310 314 317 319 321 322 321 322 324 326 327 324 325 328 328 324 318 314 308 297 286 275 266 256 247 242 242